Index of /20260430/WXO-DD/model_rdps/10km/06/018
Name Last modified Size Description
Parent Directory -
20260430T06Z_MSC_RDPS_AbsoluteVorticity_IsbL-0250_RLatLon0.09_PT018H.grib2 2026-04-30 08:43 616K
20260430T06Z_MSC_RDPS_AbsoluteVorticity_IsbL-0500_RLatLon0.09_PT018H.grib2 2026-04-30 08:43 566K
20260430T06Z_MSC_RDPS_AbsoluteVorticity_IsbL-0700_RLatLon0.09_PT018H.grib2 2026-04-30 08:43 630K
20260430T06Z_MSC_RDPS_AbsoluteVorticity_IsbL-0850_RLatLon0.09_PT018H.grib2 2026-04-30 08:43 770K
20260430T06Z_MSC_RDPS_AirTemp_AGL-120m_RLatLon0.09_PT018H.grib2 2026-04-30 08:43 386K
20260430T06Z_MSC_RDPS_AirTemp_AGL-2m_RLatLon0.09_PT018H.grib2 2026-04-30 08:43 619K
20260430T06Z_MSC_RDPS_AirTemp_AGL-40m_RLatLon0.09_PT018H.grib2 2026-04-30 08:43 397K
20260430T06Z_MSC_RDPS_AirTemp_AGL-80m_RLatLon0.09_PT018H.grib2 2026-04-30 08:43 390K
20260430T06Z_MSC_RDPS_AirTemp_IsbL-0001_RLatLon0.09_PT018H.grib2 2026-04-30 08:43 263K
20260430T06Z_MSC_RDPS_AirTemp_IsbL-0005_RLatLon0.09_PT018H.grib2 2026-04-30 08:43 286K
20260430T06Z_MSC_RDPS_AirTemp_IsbL-0010_RLatLon0.09_PT018H.grib2 2026-04-30 08:43 299K
20260430T06Z_MSC_RDPS_AirTemp_IsbL-0020_RLatLon0.09_PT018H.grib2 2026-04-30 08:43 313K
20260430T06Z_MSC_RDPS_AirTemp_IsbL-0030_RLatLon0.09_PT018H.grib2 2026-04-30 08:43 335K
20260430T06Z_MSC_RDPS_AirTemp_IsbL-0050_RLatLon0.09_PT018H.grib2 2026-04-30 08:43 309K
20260430T06Z_MSC_RDPS_AirTemp_IsbL-0100_RLatLon0.09_PT018H.grib2 2026-04-30 08:43 423K
20260430T06Z_MSC_RDPS_AirTemp_IsbL-0150_RLatLon0.09_PT018H.grib2 2026-04-30 08:43 425K
20260430T06Z_MSC_RDPS_AirTemp_IsbL-0175_RLatLon0.09_PT018H.grib2 2026-04-30 08:43 413K
20260430T06Z_MSC_RDPS_AirTemp_IsbL-0200_RLatLon0.09_PT018H.grib2 2026-04-30 08:43 418K
20260430T06Z_MSC_RDPS_AirTemp_IsbL-0225_RLatLon0.09_PT018H.grib2 2026-04-30 08:43 419K
20260430T06Z_MSC_RDPS_AirTemp_IsbL-0250_RLatLon0.09_PT018H.grib2 2026-04-30 08:43 428K
20260430T06Z_MSC_RDPS_AirTemp_IsbL-0275_RLatLon0.09_PT018H.grib2 2026-04-30 08:43 407K
20260430T06Z_MSC_RDPS_AirTemp_IsbL-0300_RLatLon0.09_PT018H.grib2 2026-04-30 08:43 415K
20260430T06Z_MSC_RDPS_AirTemp_IsbL-0350_RLatLon0.09_PT018H.grib2 2026-04-30 08:43 427K
20260430T06Z_MSC_RDPS_AirTemp_IsbL-0400_RLatLon0.09_PT018H.grib2 2026-04-30 08:43 427K
20260430T06Z_MSC_RDPS_AirTemp_IsbL-0450_RLatLon0.09_PT018H.grib2 2026-04-30 08:43 400K
20260430T06Z_MSC_RDPS_AirTemp_IsbL-0500_RLatLon0.09_PT018H.grib2 2026-04-30 08:43 411K
20260430T06Z_MSC_RDPS_AirTemp_IsbL-0550_RLatLon0.09_PT018H.grib2 2026-04-30 08:43 430K
20260430T06Z_MSC_RDPS_AirTemp_IsbL-0600_RLatLon0.09_PT018H.grib2 2026-04-30 08:43 452K
20260430T06Z_MSC_RDPS_AirTemp_IsbL-0650_RLatLon0.09_PT018H.grib2 2026-04-30 08:43 468K
20260430T06Z_MSC_RDPS_AirTemp_IsbL-0700_RLatLon0.09_PT018H.grib2 2026-04-30 08:43 383K
20260430T06Z_MSC_RDPS_AirTemp_IsbL-0750_RLatLon0.09_PT018H.grib2 2026-04-30 08:43 410K
20260430T06Z_MSC_RDPS_AirTemp_IsbL-0800_RLatLon0.09_PT018H.grib2 2026-04-30 08:43 444K
20260430T06Z_MSC_RDPS_AirTemp_IsbL-0850_RLatLon0.09_PT018H.grib2 2026-04-30 08:43 487K
20260430T06Z_MSC_RDPS_AirTemp_IsbL-0875_RLatLon0.09_PT018H.grib2 2026-04-30 08:43 509K
20260430T06Z_MSC_RDPS_AirTemp_IsbL-0900_RLatLon0.09_PT018H.grib2 2026-04-30 08:43 520K
20260430T06Z_MSC_RDPS_AirTemp_IsbL-0925_RLatLon0.09_PT018H.grib2 2026-04-30 08:43 519K
20260430T06Z_MSC_RDPS_AirTemp_IsbL-0950_RLatLon0.09_PT018H.grib2 2026-04-30 08:43 519K
20260430T06Z_MSC_RDPS_AirTemp_IsbL-0970_RLatLon0.09_PT018H.grib2 2026-04-30 08:43 512K
20260430T06Z_MSC_RDPS_AirTemp_IsbL-0985_RLatLon0.09_PT018H.grib2 2026-04-30 08:43 505K
20260430T06Z_MSC_RDPS_AirTemp_IsbL-1000_RLatLon0.09_PT018H.grib2 2026-04-30 08:43 503K
20260430T06Z_MSC_RDPS_AirTemp_IsbL-1015_RLatLon0.09_PT018H.grib2 2026-04-30 08:43 500K
20260430T06Z_MSC_RDPS_Albedo_Sfc_RLatLon0.09_PT018H.grib2 2026-04-30 08:43 157K
20260430T06Z_MSC_RDPS_CAPE_Sfc_RLatLon0.09_PT018H.grib2 2026-04-30 08:43 1.7M
20260430T06Z_MSC_RDPS_CIN_Sfc_RLatLon0.09_PT018H.grib2 2026-04-30 08:43 1.3M
20260430T06Z_MSC_RDPS_CloudWater_EAtm_RLatLon0.09_PT018H.grib2 2026-04-30 08:43 222K
20260430T06Z_MSC_RDPS_ConvectivePrecip-Accum_Sfc_RLatLon0.09_PT018H.grib2 2026-04-30 08:43 744K
20260430T06Z_MSC_RDPS_DewPointDepression_AGL-2m_RLatLon0.09_PT018H.grib2 2026-04-30 08:43 408K
20260430T06Z_MSC_RDPS_DewPointDepression_IsbL-0001_RLatLon0.09_PT018H.grib2 2026-04-30 08:43 193
20260430T06Z_MSC_RDPS_DewPointDepression_IsbL-0005_RLatLon0.09_PT018H.grib2 2026-04-30 08:43 193
20260430T06Z_MSC_RDPS_DewPointDepression_IsbL-0010_RLatLon0.09_PT018H.grib2 2026-04-30 08:43 193
20260430T06Z_MSC_RDPS_DewPointDepression_IsbL-0020_RLatLon0.09_PT018H.grib2 2026-04-30 08:43 193
20260430T06Z_MSC_RDPS_DewPointDepression_IsbL-0030_RLatLon0.09_PT018H.grib2 2026-04-30 08:43 193
20260430T06Z_MSC_RDPS_DewPointDepression_IsbL-0050_RLatLon0.09_PT018H.grib2 2026-04-30 08:43 82K
20260430T06Z_MSC_RDPS_DewPointDepression_IsbL-0100_RLatLon0.09_PT018H.grib2 2026-04-30 08:43 128K
20260430T06Z_MSC_RDPS_DewPointDepression_IsbL-0150_RLatLon0.09_PT018H.grib2 2026-04-30 08:43 151K
20260430T06Z_MSC_RDPS_DewPointDepression_IsbL-0175_RLatLon0.09_PT018H.grib2 2026-04-30 08:43 184K
20260430T06Z_MSC_RDPS_DewPointDepression_IsbL-0200_RLatLon0.09_PT018H.grib2 2026-04-30 08:43 221K
20260430T06Z_MSC_RDPS_DewPointDepression_IsbL-0225_RLatLon0.09_PT018H.grib2 2026-04-30 08:43 265K
20260430T06Z_MSC_RDPS_DewPointDepression_IsbL-0250_RLatLon0.09_PT018H.grib2 2026-04-30 08:43 305K
20260430T06Z_MSC_RDPS_DewPointDepression_IsbL-0275_RLatLon0.09_PT018H.grib2 2026-04-30 08:43 312K
20260430T06Z_MSC_RDPS_DewPointDepression_IsbL-0300_RLatLon0.09_PT018H.grib2 2026-04-30 08:43 334K
20260430T06Z_MSC_RDPS_DewPointDepression_IsbL-0350_RLatLon0.09_PT018H.grib2 2026-04-30 08:43 337K
20260430T06Z_MSC_RDPS_DewPointDepression_IsbL-0400_RLatLon0.09_PT018H.grib2 2026-04-30 08:43 344K
20260430T06Z_MSC_RDPS_DewPointDepression_IsbL-0450_RLatLon0.09_PT018H.grib2 2026-04-30 08:43 352K
20260430T06Z_MSC_RDPS_DewPointDepression_IsbL-0500_RLatLon0.09_PT018H.grib2 2026-04-30 08:43 355K
20260430T06Z_MSC_RDPS_DewPointDepression_IsbL-0550_RLatLon0.09_PT018H.grib2 2026-04-30 08:43 369K
20260430T06Z_MSC_RDPS_DewPointDepression_IsbL-0600_RLatLon0.09_PT018H.grib2 2026-04-30 08:43 385K
20260430T06Z_MSC_RDPS_DewPointDepression_IsbL-0650_RLatLon0.09_PT018H.grib2 2026-04-30 08:43 391K
20260430T06Z_MSC_RDPS_DewPointDepression_IsbL-0700_RLatLon0.09_PT018H.grib2 2026-04-30 08:43 401K
20260430T06Z_MSC_RDPS_DewPointDepression_IsbL-0750_RLatLon0.09_PT018H.grib2 2026-04-30 08:43 418K
20260430T06Z_MSC_RDPS_DewPointDepression_IsbL-0800_RLatLon0.09_PT018H.grib2 2026-04-30 08:43 444K
20260430T06Z_MSC_RDPS_DewPointDepression_IsbL-0850_RLatLon0.09_PT018H.grib2 2026-04-30 08:43 465K
20260430T06Z_MSC_RDPS_DewPointDepression_IsbL-0875_RLatLon0.09_PT018H.grib2 2026-04-30 08:43 473K
20260430T06Z_MSC_RDPS_DewPointDepression_IsbL-0900_RLatLon0.09_PT018H.grib2 2026-04-30 08:43 468K
20260430T06Z_MSC_RDPS_DewPointDepression_IsbL-0925_RLatLon0.09_PT018H.grib2 2026-04-30 08:43 452K
20260430T06Z_MSC_RDPS_DewPointDepression_IsbL-0950_RLatLon0.09_PT018H.grib2 2026-04-30 08:43 443K
20260430T06Z_MSC_RDPS_DewPointDepression_IsbL-0970_RLatLon0.09_PT018H.grib2 2026-04-30 08:43 433K
20260430T06Z_MSC_RDPS_DewPointDepression_IsbL-0985_RLatLon0.09_PT018H.grib2 2026-04-30 08:43 428K
20260430T06Z_MSC_RDPS_DewPointDepression_IsbL-1000_RLatLon0.09_PT018H.grib2 2026-04-30 08:43 422K
20260430T06Z_MSC_RDPS_DewPointDepression_IsbL-1015_RLatLon0.09_PT018H.grib2 2026-04-30 08:43 411K
20260430T06Z_MSC_RDPS_DewPoint_AGL-2m_RLatLon0.09_PT018H.grib2 2026-04-30 08:43 307K
20260430T06Z_MSC_RDPS_DownwardLongwaveRadiationFlux-Accum_Sfc_RLatLon0.09_PT018H.grib2 2026-04-30 08:43 395K
20260430T06Z_MSC_RDPS_DownwardShortwaveRadiationFlux-Accum_NTAtm_RLatLon0.09_PT018H.grib2 2026-04-30 08:43 109K
20260430T06Z_MSC_RDPS_DownwardShortwaveRadiationFlux-Accum_Sfc_RLatLon0.09_PT018H.grib2 2026-04-30 08:43 604K
20260430T06Z_MSC_RDPS_FreezingRain-Accum12h_Sfc_RLatLon0.09_PT018H.grib2 2026-04-30 08:43 59K
20260430T06Z_MSC_RDPS_FreezingRain-Accum1h_Sfc_RLatLon0.09_PT018H.grib2 2026-04-30 08:43 18K
20260430T06Z_MSC_RDPS_FreezingRain-Accum3h_Sfc_RLatLon0.09_PT018H.grib2 2026-04-30 08:43 23K
20260430T06Z_MSC_RDPS_FreezingRain-Accum6h_Sfc_RLatLon0.09_PT018H.grib2 2026-04-30 08:43 25K
20260430T06Z_MSC_RDPS_FreezingRain-Accum_Sfc_RLatLon0.09_PT018H.grib2 2026-04-30 08:43 88K
20260430T06Z_MSC_RDPS_GeopotentialHeight_IsbL-0001_RLatLon0.09_PT018H.grib2 2026-04-30 08:43 239K
20260430T06Z_MSC_RDPS_GeopotentialHeight_IsbL-0005_RLatLon0.09_PT018H.grib2 2026-04-30 08:43 334K
20260430T06Z_MSC_RDPS_GeopotentialHeight_IsbL-0010_RLatLon0.09_PT018H.grib2 2026-04-30 08:43 302K
20260430T06Z_MSC_RDPS_GeopotentialHeight_IsbL-0020_RLatLon0.09_PT018H.grib2 2026-04-30 08:43 301K
20260430T06Z_MSC_RDPS_GeopotentialHeight_IsbL-0030_RLatLon0.09_PT018H.grib2 2026-04-30 08:43 302K
20260430T06Z_MSC_RDPS_GeopotentialHeight_IsbL-0050_RLatLon0.09_PT018H.grib2 2026-04-30 08:43 303K
20260430T06Z_MSC_RDPS_GeopotentialHeight_IsbL-0100_RLatLon0.09_PT018H.grib2 2026-04-30 08:43 282K
20260430T06Z_MSC_RDPS_GeopotentialHeight_IsbL-0150_RLatLon0.09_PT018H.grib2 2026-04-30 08:43 227K
20260430T06Z_MSC_RDPS_GeopotentialHeight_IsbL-0175_RLatLon0.09_PT018H.grib2 2026-04-30 08:43 260K
20260430T06Z_MSC_RDPS_GeopotentialHeight_IsbL-0200_RLatLon0.09_PT018H.grib2 2026-04-30 08:43 263K
20260430T06Z_MSC_RDPS_GeopotentialHeight_IsbL-0225_RLatLon0.09_PT018H.grib2 2026-04-30 08:43 265K
20260430T06Z_MSC_RDPS_GeopotentialHeight_IsbL-0250_RLatLon0.09_PT018H.grib2 2026-04-30 08:43 266K
20260430T06Z_MSC_RDPS_GeopotentialHeight_IsbL-0275_RLatLon0.09_PT018H.grib2 2026-04-30 08:43 266K
20260430T06Z_MSC_RDPS_GeopotentialHeight_IsbL-0300_RLatLon0.09_PT018H.grib2 2026-04-30 08:43 266K
20260430T06Z_MSC_RDPS_GeopotentialHeight_IsbL-0350_RLatLon0.09_PT018H.grib2 2026-04-30 08:43 231K
20260430T06Z_MSC_RDPS_GeopotentialHeight_IsbL-0400_RLatLon0.09_PT018H.grib2 2026-04-30 08:43 228K
20260430T06Z_MSC_RDPS_GeopotentialHeight_IsbL-0450_RLatLon0.09_PT018H.grib2 2026-04-30 08:43 296K
20260430T06Z_MSC_RDPS_GeopotentialHeight_IsbL-0500_RLatLon0.09_PT018H.grib2 2026-04-30 08:43 291K
20260430T06Z_MSC_RDPS_GeopotentialHeight_IsbL-0550_RLatLon0.09_PT018H.grib2 2026-04-30 08:43 287K
20260430T06Z_MSC_RDPS_GeopotentialHeight_IsbL-0600_RLatLon0.09_PT018H.grib2 2026-04-30 08:43 256K
20260430T06Z_MSC_RDPS_GeopotentialHeight_IsbL-0650_RLatLon0.09_PT018H.grib2 2026-04-30 08:43 254K
20260430T06Z_MSC_RDPS_GeopotentialHeight_IsbL-0700_RLatLon0.09_PT018H.grib2 2026-04-30 08:43 334K
20260430T06Z_MSC_RDPS_GeopotentialHeight_IsbL-0750_RLatLon0.09_PT018H.grib2 2026-04-30 08:43 336K
20260430T06Z_MSC_RDPS_GeopotentialHeight_IsbL-0800_RLatLon0.09_PT018H.grib2 2026-04-30 08:43 341K
20260430T06Z_MSC_RDPS_GeopotentialHeight_IsbL-0850_RLatLon0.09_PT018H.grib2 2026-04-30 08:43 348K
20260430T06Z_MSC_RDPS_GeopotentialHeight_IsbL-0875_RLatLon0.09_PT018H.grib2 2026-04-30 08:43 349K
20260430T06Z_MSC_RDPS_GeopotentialHeight_IsbL-0900_RLatLon0.09_PT018H.grib2 2026-04-30 08:43 356K
20260430T06Z_MSC_RDPS_GeopotentialHeight_IsbL-0925_RLatLon0.09_PT018H.grib2 2026-04-30 08:43 391K
20260430T06Z_MSC_RDPS_GeopotentialHeight_IsbL-0950_RLatLon0.09_PT018H.grib2 2026-04-30 08:43 394K
20260430T06Z_MSC_RDPS_GeopotentialHeight_IsbL-0970_RLatLon0.09_PT018H.grib2 2026-04-30 08:43 368K
20260430T06Z_MSC_RDPS_GeopotentialHeight_IsbL-0985_RLatLon0.09_PT018H.grib2 2026-04-30 08:43 376K
20260430T06Z_MSC_RDPS_GeopotentialHeight_IsbL-1000_RLatLon0.09_PT018H.grib2 2026-04-30 08:43 388K
20260430T06Z_MSC_RDPS_GeopotentialHeight_IsbL-1015_RLatLon0.09_PT018H.grib2 2026-04-30 08:43 402K
20260430T06Z_MSC_RDPS_Humidex_Sfc_RLatLon0.09_PT018H.grib2 2026-04-30 08:43 2.2M
20260430T06Z_MSC_RDPS_IcePellets-Accum12h_Sfc_RLatLon0.09_PT018H.grib2 2026-04-30 08:43 5.6K
20260430T06Z_MSC_RDPS_IcePellets-Accum1h_Sfc_RLatLon0.09_PT018H.grib2 2026-04-30 08:43 1.9K
20260430T06Z_MSC_RDPS_IcePellets-Accum3h_Sfc_RLatLon0.09_PT018H.grib2 2026-04-30 08:43 2.1K
20260430T06Z_MSC_RDPS_IcePellets-Accum6h_Sfc_RLatLon0.09_PT018H.grib2 2026-04-30 08:43 4.3K
20260430T06Z_MSC_RDPS_IcePellets-Accum_Sfc_RLatLon0.09_PT018H.grib2 2026-04-30 08:43 5.3K
20260430T06Z_MSC_RDPS_KIndex_Sfc_RLatLon0.09_PT018H.grib2 2026-04-30 08:43 2.4M
20260430T06Z_MSC_RDPS_LatentHeatNetFlux_Sfc_RLatLon0.09_PT018H.grib2 2026-04-30 08:43 344K
20260430T06Z_MSC_RDPS_LiftedIndex-MU-VT_IsbL-0500_RLatLon0.09_PT018H.grib2 2026-04-30 08:43 2.4M
20260430T06Z_MSC_RDPS_NetLongwaveRadiationFlux-Accum_Sfc_RLatLon0.09_PT018H.grib2 2026-04-30 08:43 531K
20260430T06Z_MSC_RDPS_NetShortwaveRadiationFlux-Accum_Sfc_RLatLon0.09_PT018H.grib2 2026-04-30 08:43 603K
20260430T06Z_MSC_RDPS_PlanetaryBoundaryLayerHeight_Sfc_RLatLon0.09_PT018H.grib2 2026-04-30 08:43 1.0M
20260430T06Z_MSC_RDPS_Precip-Accum12h_Sfc_RLatLon0.09_PT018H.grib2 2026-04-30 08:43 1.5M
20260430T06Z_MSC_RDPS_Precip-Accum1h_Sfc_RLatLon0.09_PT018H.grib2 2026-04-30 08:43 1.1M
20260430T06Z_MSC_RDPS_Precip-Accum3h_Sfc_RLatLon0.09_PT018H.grib2 2026-04-30 08:43 1.2M
20260430T06Z_MSC_RDPS_Precip-Accum6h_Sfc_RLatLon0.09_PT018H.grib2 2026-04-30 08:43 1.4M
20260430T06Z_MSC_RDPS_Precip-Accum_Sfc_RLatLon0.09_PT018H.grib2 2026-04-30 08:43 1.6M
20260430T06Z_MSC_RDPS_PrecipRate_Sfc_RLatLon0.09_PT018H.grib2 2026-04-30 08:43 170K
20260430T06Z_MSC_RDPS_PrecipType-Instant_Sfc_RLatLon0.09_PT018H.grib2 2026-04-30 08:43 564K
20260430T06Z_MSC_RDPS_Pressure-Trend3h_Sfc_RLatLon0.09_PT018H.grib2 2026-04-30 08:43 1.2M
20260430T06Z_MSC_RDPS_Pressure_MSL_RLatLon0.09_PT018H.grib2 2026-04-30 08:43 323K
20260430T06Z_MSC_RDPS_Pressure_PVU-1.5_RLatLon0.09_PT018H.grib2 2026-04-30 08:43 2.5M
20260430T06Z_MSC_RDPS_Pressure_PVU-1_RLatLon0.09_PT018H.grib2 2026-04-30 08:43 2.4M
20260430T06Z_MSC_RDPS_Pressure_PVU-2_RLatLon0.09_PT018H.grib2 2026-04-30 08:43 2.4M
20260430T06Z_MSC_RDPS_Pressure_Sfc_RLatLon0.09_PT018H.grib2 2026-04-30 08:43 498K
20260430T06Z_MSC_RDPS_RadiativeTemp_Sfc_RLatLon0.09_PT018H.grib2 2026-04-30 08:43 310K
20260430T06Z_MSC_RDPS_Rain-Accum12h_Sfc_RLatLon0.09_PT018H.grib2 2026-04-30 08:43 1.0M
20260430T06Z_MSC_RDPS_Rain-Accum1h_Sfc_RLatLon0.09_PT018H.grib2 2026-04-30 08:43 588K
20260430T06Z_MSC_RDPS_Rain-Accum3h_Sfc_RLatLon0.09_PT018H.grib2 2026-04-30 08:43 672K
20260430T06Z_MSC_RDPS_Rain-Accum6h_Sfc_RLatLon0.09_PT018H.grib2 2026-04-30 08:43 909K
20260430T06Z_MSC_RDPS_Rain-Accum_Sfc_RLatLon0.09_PT018H.grib2 2026-04-30 08:43 1.2M
20260430T06Z_MSC_RDPS_RelativeHumidity_AGL-2m_RLatLon0.09_PT018H.grib2 2026-04-30 08:43 1.0M
20260430T06Z_MSC_RDPS_RelativeHumidity_IsbL-0010_RLatLon0.09_PT018H.grib2 2026-04-30 08:43 629K
20260430T06Z_MSC_RDPS_RelativeHumidity_IsbL-0020_RLatLon0.09_PT018H.grib2 2026-04-30 08:43 678K
20260430T06Z_MSC_RDPS_RelativeHumidity_IsbL-0030_RLatLon0.09_PT018H.grib2 2026-04-30 08:43 602K
20260430T06Z_MSC_RDPS_RelativeHumidity_IsbL-0050_RLatLon0.09_PT018H.grib2 2026-04-30 08:43 368K
20260430T06Z_MSC_RDPS_RelativeHumidity_IsbL-0100_RLatLon0.09_PT018H.grib2 2026-04-30 08:43 286K
20260430T06Z_MSC_RDPS_RelativeHumidity_IsbL-0150_RLatLon0.09_PT018H.grib2 2026-04-30 08:43 411K
20260430T06Z_MSC_RDPS_RelativeHumidity_IsbL-0175_RLatLon0.09_PT018H.grib2 2026-04-30 08:43 479K
20260430T06Z_MSC_RDPS_RelativeHumidity_IsbL-0200_RLatLon0.09_PT018H.grib2 2026-04-30 08:43 559K
20260430T06Z_MSC_RDPS_RelativeHumidity_IsbL-0225_RLatLon0.09_PT018H.grib2 2026-04-30 08:43 632K
20260430T06Z_MSC_RDPS_RelativeHumidity_IsbL-0250_RLatLon0.09_PT018H.grib2 2026-04-30 08:43 706K
20260430T06Z_MSC_RDPS_RelativeHumidity_IsbL-0275_RLatLon0.09_PT018H.grib2 2026-04-30 08:43 732K
20260430T06Z_MSC_RDPS_RelativeHumidity_IsbL-0300_RLatLon0.09_PT018H.grib2 2026-04-30 08:43 778K
20260430T06Z_MSC_RDPS_RelativeHumidity_IsbL-0350_RLatLon0.09_PT018H.grib2 2026-04-30 08:43 795K
20260430T06Z_MSC_RDPS_RelativeHumidity_IsbL-0400_RLatLon0.09_PT018H.grib2 2026-04-30 08:43 802K
20260430T06Z_MSC_RDPS_RelativeHumidity_IsbL-0450_RLatLon0.09_PT018H.grib2 2026-04-30 08:43 806K
20260430T06Z_MSC_RDPS_RelativeHumidity_IsbL-0500_RLatLon0.09_PT018H.grib2 2026-04-30 08:43 808K
20260430T06Z_MSC_RDPS_RelativeHumidity_IsbL-0550_RLatLon0.09_PT018H.grib2 2026-04-30 08:43 828K
20260430T06Z_MSC_RDPS_RelativeHumidity_IsbL-0600_RLatLon0.09_PT018H.grib2 2026-04-30 08:43 865K
20260430T06Z_MSC_RDPS_RelativeHumidity_IsbL-0650_RLatLon0.09_PT018H.grib2 2026-04-30 08:43 873K
20260430T06Z_MSC_RDPS_RelativeHumidity_IsbL-0700_RLatLon0.09_PT018H.grib2 2026-04-30 08:43 896K
20260430T06Z_MSC_RDPS_RelativeHumidity_IsbL-0750_RLatLon0.09_PT018H.grib2 2026-04-30 08:43 941K
20260430T06Z_MSC_RDPS_RelativeHumidity_IsbL-0800_RLatLon0.09_PT018H.grib2 2026-04-30 08:43 1.0M
20260430T06Z_MSC_RDPS_RelativeHumidity_IsbL-0850_RLatLon0.09_PT018H.grib2 2026-04-30 08:43 1.0M
20260430T06Z_MSC_RDPS_RelativeHumidity_IsbL-0875_RLatLon0.09_PT018H.grib2 2026-04-30 08:43 1.0M
20260430T06Z_MSC_RDPS_RelativeHumidity_IsbL-0900_RLatLon0.09_PT018H.grib2 2026-04-30 08:43 1.1M
20260430T06Z_MSC_RDPS_RelativeHumidity_IsbL-0925_RLatLon0.09_PT018H.grib2 2026-04-30 08:43 1.1M
20260430T06Z_MSC_RDPS_RelativeHumidity_IsbL-0950_RLatLon0.09_PT018H.grib2 2026-04-30 08:43 1.1M
20260430T06Z_MSC_RDPS_RelativeHumidity_IsbL-0970_RLatLon0.09_PT018H.grib2 2026-04-30 08:43 1.0M
20260430T06Z_MSC_RDPS_RelativeHumidity_IsbL-0985_RLatLon0.09_PT018H.grib2 2026-04-30 08:43 1.0M
20260430T06Z_MSC_RDPS_RelativeHumidity_IsbL-1000_RLatLon0.09_PT018H.grib2 2026-04-30 08:43 1.0M
20260430T06Z_MSC_RDPS_RelativeHumidity_IsbL-1015_RLatLon0.09_PT018H.grib2 2026-04-30 08:43 1.0M
20260430T06Z_MSC_RDPS_Runoff-Accum_Sfc_RLatLon0.09_PT018H.grib2 2026-04-30 08:43 43K
20260430T06Z_MSC_RDPS_SWEATIndex_Sfc_RLatLon0.09_PT018H.grib2 2026-04-30 08:43 2.4M
20260430T06Z_MSC_RDPS_SeeingIndex_EAtm_RLatLon0.09_PT018H.grib2 2026-04-30 08:43 1.0M
20260430T06Z_MSC_RDPS_SensibleHeatNetFlux_Sfc_RLatLon0.09_PT018H.grib2 2026-04-30 08:43 306K
20260430T06Z_MSC_RDPS_ShowalterIndex_IsbL-0500_RLatLon0.09_PT018H.grib2 2026-04-30 08:43 2.6M
20260430T06Z_MSC_RDPS_SkyTransparencyIndex_EAtm_RLatLon0.09_PT018H.grib2 2026-04-30 08:43 707K
20260430T06Z_MSC_RDPS_Snow-Accum12h_Sfc_RLatLon0.09_PT018H.grib2 2026-04-30 08:43 585K
20260430T06Z_MSC_RDPS_Snow-Accum1h_Sfc_RLatLon0.09_PT018H.grib2 2026-04-30 08:43 430K
20260430T06Z_MSC_RDPS_Snow-Accum3h_Sfc_RLatLon0.09_PT018H.grib2 2026-04-30 08:43 459K
20260430T06Z_MSC_RDPS_Snow-Accum6h_Sfc_RLatLon0.09_PT018H.grib2 2026-04-30 08:43 550K
20260430T06Z_MSC_RDPS_Snow-Accum_Sfc_RLatLon0.09_PT018H.grib2 2026-04-30 08:43 629K
20260430T06Z_MSC_RDPS_SnowDensity_Sfc_RLatLon0.09_PT018H.grib2 2026-04-30 08:43 173K
20260430T06Z_MSC_RDPS_SnowDepth_Sfc_RLatLon0.09_PT018H.grib2 2026-04-30 08:43 673K
20260430T06Z_MSC_RDPS_SoilTemp_DBS-0to10cm_RLatLon0.09_PT018H.grib2 2026-04-30 08:43 222K
20260430T06Z_MSC_RDPS_SoilTemp_Sfc_RLatLon0.09_PT018H.grib2 2026-04-30 08:43 270K
20260430T06Z_MSC_RDPS_SoilVolumetricIceContent_Sfc_RLatLon0.09_PT018H.grib2 2026-04-30 08:43 162K
20260430T06Z_MSC_RDPS_SoilVolumetricWaterContent_DBS-0to10cm_RLatLon0.09_PT018H.grib2 2026-04-30 08:43 267K
20260430T06Z_MSC_RDPS_SoilVolumetricWaterContent_DBS-0to1cm_RLatLon0.09_PT018H.grib2 2026-04-30 08:43 334K
20260430T06Z_MSC_RDPS_SpecificHumidity_AGL-120m_RLatLon0.09_PT018H.grib2 2026-04-30 08:43 486K
20260430T06Z_MSC_RDPS_SpecificHumidity_AGL-2m_RLatLon0.09_PT018H.grib2 2026-04-30 08:43 655K
20260430T06Z_MSC_RDPS_SpecificHumidity_AGL-40m_RLatLon0.09_PT018H.grib2 2026-04-30 08:43 491K
20260430T06Z_MSC_RDPS_SpecificHumidity_AGL-80m_RLatLon0.09_PT018H.grib2 2026-04-30 08:43 487K
20260430T06Z_MSC_RDPS_SpecificHumidity_IsbL-0001_RLatLon0.09_PT018H.grib2 2026-04-30 08:43 397K
20260430T06Z_MSC_RDPS_SpecificHumidity_IsbL-0005_RLatLon0.09_PT018H.grib2 2026-04-30 08:43 361K
20260430T06Z_MSC_RDPS_SpecificHumidity_IsbL-0010_RLatLon0.09_PT018H.grib2 2026-04-30 08:43 396K
20260430T06Z_MSC_RDPS_SpecificHumidity_IsbL-0020_RLatLon0.09_PT018H.grib2 2026-04-30 08:43 387K
20260430T06Z_MSC_RDPS_SpecificHumidity_IsbL-0030_RLatLon0.09_PT018H.grib2 2026-04-30 08:43 372K
20260430T06Z_MSC_RDPS_SpecificHumidity_IsbL-0050_RLatLon0.09_PT018H.grib2 2026-04-30 08:43 490K
20260430T06Z_MSC_RDPS_SpecificHumidity_IsbL-0100_RLatLon0.09_PT018H.grib2 2026-04-30 08:43 385K
20260430T06Z_MSC_RDPS_SpecificHumidity_IsbL-0150_RLatLon0.09_PT018H.grib2 2026-04-30 08:43 459K
20260430T06Z_MSC_RDPS_SpecificHumidity_IsbL-0175_RLatLon0.09_PT018H.grib2 2026-04-30 08:43 541K
20260430T06Z_MSC_RDPS_SpecificHumidity_IsbL-0200_RLatLon0.09_PT018H.grib2 2026-04-30 08:43 455K
20260430T06Z_MSC_RDPS_SpecificHumidity_IsbL-0225_RLatLon0.09_PT018H.grib2 2026-04-30 08:43 460K
20260430T06Z_MSC_RDPS_SpecificHumidity_IsbL-0250_RLatLon0.09_PT018H.grib2 2026-04-30 08:43 569K
20260430T06Z_MSC_RDPS_SpecificHumidity_IsbL-0275_RLatLon0.09_PT018H.grib2 2026-04-30 08:43 485K
20260430T06Z_MSC_RDPS_SpecificHumidity_IsbL-0300_RLatLon0.09_PT018H.grib2 2026-04-30 08:43 461K
20260430T06Z_MSC_RDPS_SpecificHumidity_IsbL-0350_RLatLon0.09_PT018H.grib2 2026-04-30 08:43 452K
20260430T06Z_MSC_RDPS_SpecificHumidity_IsbL-0400_RLatLon0.09_PT018H.grib2 2026-04-30 08:43 528K
20260430T06Z_MSC_RDPS_SpecificHumidity_IsbL-0450_RLatLon0.09_PT018H.grib2 2026-04-30 08:43 580K
20260430T06Z_MSC_RDPS_SpecificHumidity_IsbL-0500_RLatLon0.09_PT018H.grib2 2026-04-30 08:43 513K
20260430T06Z_MSC_RDPS_SpecificHumidity_IsbL-0550_RLatLon0.09_PT018H.grib2 2026-04-30 08:43 588K
20260430T06Z_MSC_RDPS_SpecificHumidity_IsbL-0600_RLatLon0.09_PT018H.grib2 2026-04-30 08:43 647K
20260430T06Z_MSC_RDPS_SpecificHumidity_IsbL-0650_RLatLon0.09_PT018H.grib2 2026-04-30 08:43 566K
20260430T06Z_MSC_RDPS_SpecificHumidity_IsbL-0700_RLatLon0.09_PT018H.grib2 2026-04-30 08:43 608K
20260430T06Z_MSC_RDPS_SpecificHumidity_IsbL-0750_RLatLon0.09_PT018H.grib2 2026-04-30 08:43 662K
20260430T06Z_MSC_RDPS_SpecificHumidity_IsbL-0800_RLatLon0.09_PT018H.grib2 2026-04-30 08:43 735K
20260430T06Z_MSC_RDPS_SpecificHumidity_IsbL-0850_RLatLon0.09_PT018H.grib2 2026-04-30 08:43 799K
20260430T06Z_MSC_RDPS_SpecificHumidity_IsbL-0875_RLatLon0.09_PT018H.grib2 2026-04-30 08:43 828K
20260430T06Z_MSC_RDPS_SpecificHumidity_IsbL-0900_RLatLon0.09_PT018H.grib2 2026-04-30 08:43 844K
20260430T06Z_MSC_RDPS_SpecificHumidity_IsbL-0925_RLatLon0.09_PT018H.grib2 2026-04-30 08:43 706K
20260430T06Z_MSC_RDPS_SpecificHumidity_IsbL-0950_RLatLon0.09_PT018H.grib2 2026-04-30 08:43 705K
20260430T06Z_MSC_RDPS_SpecificHumidity_IsbL-0970_RLatLon0.09_PT018H.grib2 2026-04-30 08:43 693K
20260430T06Z_MSC_RDPS_SpecificHumidity_IsbL-0985_RLatLon0.09_PT018H.grib2 2026-04-30 08:43 683K
20260430T06Z_MSC_RDPS_SpecificHumidity_IsbL-1000_RLatLon0.09_PT018H.grib2 2026-04-30 08:43 675K
20260430T06Z_MSC_RDPS_SpecificHumidity_IsbL-1015_RLatLon0.09_PT018H.grib2 2026-04-30 08:43 664K
20260430T06Z_MSC_RDPS_SpecificHumidity_Sfc_RLatLon0.09_PT018H.grib2 2026-04-30 08:43 330K
20260430T06Z_MSC_RDPS_StormRelativeHelicity_EtaL-10000_RLatLon0.09_PT018H.grib2 2026-04-30 08:43 1.1M
20260430T06Z_MSC_RDPS_StormSeverityIndex_EtaL-10000_RLatLon0.09_PT018H.grib2 2026-04-30 08:43 1.2M
20260430T06Z_MSC_RDPS_Thickness_IsbL-0850to0700_RLatLon0.09_PT018H.grib2 2026-04-30 08:43 194K
20260430T06Z_MSC_RDPS_Thickness_IsbL-1000to0500_RLatLon0.09_PT018H.grib2 2026-04-30 08:43 137K
20260430T06Z_MSC_RDPS_Thickness_IsbL-1000to0850_RLatLon0.09_PT018H.grib2 2026-04-30 08:43 184K
20260430T06Z_MSC_RDPS_TotalCloudCover_Sfc_RLatLon0.09_PT018H.grib2 2026-04-30 08:43 654K
20260430T06Z_MSC_RDPS_TotalTotalsIndex_Sfc_RLatLon0.09_PT018H.grib2 2026-04-30 08:43 2.3M
20260430T06Z_MSC_RDPS_UVIndex-ClearSky_Sfc_RLatLon0.09_PT018H.grib2 2026-04-30 08:43 187K
20260430T06Z_MSC_RDPS_UVIndex_Sfc_RLatLon0.09_PT018H.grib2 2026-04-30 08:43 394K
20260430T06Z_MSC_RDPS_UpwardLongwaveRadiationFlux_NTAtm_RLatLon0.09_PT018H.grib2 2026-04-30 08:43 497K
20260430T06Z_MSC_RDPS_UpwardShortwaveRadiationFlux_NTAtm_RLatLon0.09_PT018H.grib2 2026-04-30 08:43 339K
20260430T06Z_MSC_RDPS_VerticalVelocity_IsbL-0250_RLatLon0.09_PT018H.grib2 2026-04-30 08:43 555K
20260430T06Z_MSC_RDPS_VerticalVelocity_IsbL-0500_RLatLon0.09_PT018H.grib2 2026-04-30 08:43 544K
20260430T06Z_MSC_RDPS_VerticalVelocity_IsbL-0700_RLatLon0.09_PT018H.grib2 2026-04-30 08:43 596K
20260430T06Z_MSC_RDPS_VerticalVelocity_IsbL-0850_RLatLon0.09_PT018H.grib2 2026-04-30 08:43 705K
20260430T06Z_MSC_RDPS_VerticalWindShear_EtaL-6500_RLatLon0.09_PT018H.grib2 2026-04-30 08:43 1.2M
20260430T06Z_MSC_RDPS_WindChill_Sfc_RLatLon0.09_PT018H.grib2 2026-04-30 08:43 1.1M
20260430T06Z_MSC_RDPS_WindDir_AGL-10m_RLatLon0.09_PT018H.grib2 2026-04-30 08:43 962K
20260430T06Z_MSC_RDPS_WindDir_AGL-120m_RLatLon0.09_PT018H.grib2 2026-04-30 08:43 609K
20260430T06Z_MSC_RDPS_WindDir_AGL-40m_RLatLon0.09_PT018H.grib2 2026-04-30 08:43 632K
20260430T06Z_MSC_RDPS_WindDir_AGL-80m_RLatLon0.09_PT018H.grib2 2026-04-30 08:43 618K
20260430T06Z_MSC_RDPS_WindDir_IsbL-0001_RLatLon0.09_PT018H.grib2 2026-04-30 08:43 314K
20260430T06Z_MSC_RDPS_WindDir_IsbL-0005_RLatLon0.09_PT018H.grib2 2026-04-30 08:43 365K
20260430T06Z_MSC_RDPS_WindDir_IsbL-0010_RLatLon0.09_PT018H.grib2 2026-04-30 08:43 381K
20260430T06Z_MSC_RDPS_WindDir_IsbL-0020_RLatLon0.09_PT018H.grib2 2026-04-30 08:43 422K
20260430T06Z_MSC_RDPS_WindDir_IsbL-0030_RLatLon0.09_PT018H.grib2 2026-04-30 08:43 408K
20260430T06Z_MSC_RDPS_WindDir_IsbL-0050_RLatLon0.09_PT018H.grib2 2026-04-30 08:43 415K
20260430T06Z_MSC_RDPS_WindDir_IsbL-0100_RLatLon0.09_PT018H.grib2 2026-04-30 08:43 429K
20260430T06Z_MSC_RDPS_WindDir_IsbL-0150_RLatLon0.09_PT018H.grib2 2026-04-30 08:43 432K
20260430T06Z_MSC_RDPS_WindDir_IsbL-0175_RLatLon0.09_PT018H.grib2 2026-04-30 08:43 446K
20260430T06Z_MSC_RDPS_WindDir_IsbL-0200_RLatLon0.09_PT018H.grib2 2026-04-30 08:43 457K
20260430T06Z_MSC_RDPS_WindDir_IsbL-0225_RLatLon0.09_PT018H.grib2 2026-04-30 08:43 463K
20260430T06Z_MSC_RDPS_WindDir_IsbL-0250_RLatLon0.09_PT018H.grib2 2026-04-30 08:43 463K
20260430T06Z_MSC_RDPS_WindDir_IsbL-0275_RLatLon0.09_PT018H.grib2 2026-04-30 08:43 486K
20260430T06Z_MSC_RDPS_WindDir_IsbL-0300_RLatLon0.09_PT018H.grib2 2026-04-30 08:43 483K
20260430T06Z_MSC_RDPS_WindDir_IsbL-0350_RLatLon0.09_PT018H.grib2 2026-04-30 08:43 499K
20260430T06Z_MSC_RDPS_WindDir_IsbL-0400_RLatLon0.09_PT018H.grib2 2026-04-30 08:43 511K
20260430T06Z_MSC_RDPS_WindDir_IsbL-0450_RLatLon0.09_PT018H.grib2 2026-04-30 08:43 521K
20260430T06Z_MSC_RDPS_WindDir_IsbL-0500_RLatLon0.09_PT018H.grib2 2026-04-30 08:43 541K
20260430T06Z_MSC_RDPS_WindDir_IsbL-0550_RLatLon0.09_PT018H.grib2 2026-04-30 08:43 559K
20260430T06Z_MSC_RDPS_WindDir_IsbL-0600_RLatLon0.09_PT018H.grib2 2026-04-30 08:43 594K
20260430T06Z_MSC_RDPS_WindDir_IsbL-0650_RLatLon0.09_PT018H.grib2 2026-04-30 08:43 642K
20260430T06Z_MSC_RDPS_WindDir_IsbL-0700_RLatLon0.09_PT018H.grib2 2026-04-30 08:43 692K
20260430T06Z_MSC_RDPS_WindDir_IsbL-0750_RLatLon0.09_PT018H.grib2 2026-04-30 08:43 741K
20260430T06Z_MSC_RDPS_WindDir_IsbL-0800_RLatLon0.09_PT018H.grib2 2026-04-30 08:43 799K
20260430T06Z_MSC_RDPS_WindDir_IsbL-0850_RLatLon0.09_PT018H.grib2 2026-04-30 08:43 859K
20260430T06Z_MSC_RDPS_WindDir_IsbL-0875_RLatLon0.09_PT018H.grib2 2026-04-30 08:43 884K
20260430T06Z_MSC_RDPS_WindDir_IsbL-0900_RLatLon0.09_PT018H.grib2 2026-04-30 08:43 904K
20260430T06Z_MSC_RDPS_WindDir_IsbL-0925_RLatLon0.09_PT018H.grib2 2026-04-30 08:43 914K
20260430T06Z_MSC_RDPS_WindDir_IsbL-0950_RLatLon0.09_PT018H.grib2 2026-04-30 08:43 915K
20260430T06Z_MSC_RDPS_WindDir_IsbL-0970_RLatLon0.09_PT018H.grib2 2026-04-30 08:43 921K
20260430T06Z_MSC_RDPS_WindDir_IsbL-0985_RLatLon0.09_PT018H.grib2 2026-04-30 08:43 929K
20260430T06Z_MSC_RDPS_WindDir_IsbL-1000_RLatLon0.09_PT018H.grib2 2026-04-30 08:43 942K
20260430T06Z_MSC_RDPS_WindDir_IsbL-1015_RLatLon0.09_PT018H.grib2 2026-04-30 08:43 956K
20260430T06Z_MSC_RDPS_WindGust-Max_AGL-10m_RLatLon0.09_PT018H.grib2 2026-04-30 08:43 1.0M
20260430T06Z_MSC_RDPS_WindGust-Min_AGL-10m_RLatLon0.09_PT018H.grib2 2026-04-30 08:43 962K
20260430T06Z_MSC_RDPS_WindGust_AGL-10m_RLatLon0.09_PT018H.grib2 2026-04-30 08:43 1.0M
20260430T06Z_MSC_RDPS_WindSpeed_AGL-10m_RLatLon0.09_PT018H.grib2 2026-04-30 08:43 826K
20260430T06Z_MSC_RDPS_WindSpeed_AGL-120m_RLatLon0.09_PT018H.grib2 2026-04-30 08:43 527K
20260430T06Z_MSC_RDPS_WindSpeed_AGL-40m_RLatLon0.09_PT018H.grib2 2026-04-30 08:43 530K
20260430T06Z_MSC_RDPS_WindSpeed_AGL-80m_RLatLon0.09_PT018H.grib2 2026-04-30 08:43 528K
20260430T06Z_MSC_RDPS_WindSpeed_IsbL-0001_RLatLon0.09_PT018H.grib2 2026-04-30 08:43 251K
20260430T06Z_MSC_RDPS_WindSpeed_IsbL-0005_RLatLon0.09_PT018H.grib2 2026-04-30 08:43 380K
20260430T06Z_MSC_RDPS_WindSpeed_IsbL-0010_RLatLon0.09_PT018H.grib2 2026-04-30 08:43 395K
20260430T06Z_MSC_RDPS_WindSpeed_IsbL-0020_RLatLon0.09_PT018H.grib2 2026-04-30 08:43 323K
20260430T06Z_MSC_RDPS_WindSpeed_IsbL-0030_RLatLon0.09_PT018H.grib2 2026-04-30 08:43 323K
20260430T06Z_MSC_RDPS_WindSpeed_IsbL-0050_RLatLon0.09_PT018H.grib2 2026-04-30 08:43 346K
20260430T06Z_MSC_RDPS_WindSpeed_IsbL-0100_RLatLon0.09_PT018H.grib2 2026-04-30 08:43 476K
20260430T06Z_MSC_RDPS_WindSpeed_IsbL-0150_RLatLon0.09_PT018H.grib2 2026-04-30 08:43 386K
20260430T06Z_MSC_RDPS_WindSpeed_IsbL-0175_RLatLon0.09_PT018H.grib2 2026-04-30 08:43 431K
20260430T06Z_MSC_RDPS_WindSpeed_IsbL-0200_RLatLon0.09_PT018H.grib2 2026-04-30 08:43 447K
20260430T06Z_MSC_RDPS_WindSpeed_IsbL-0225_RLatLon0.09_PT018H.grib2 2026-04-30 08:43 455K
20260430T06Z_MSC_RDPS_WindSpeed_IsbL-0250_RLatLon0.09_PT018H.grib2 2026-04-30 08:43 457K
20260430T06Z_MSC_RDPS_WindSpeed_IsbL-0275_RLatLon0.09_PT018H.grib2 2026-04-30 08:43 475K
20260430T06Z_MSC_RDPS_WindSpeed_IsbL-0300_RLatLon0.09_PT018H.grib2 2026-04-30 08:43 472K
20260430T06Z_MSC_RDPS_WindSpeed_IsbL-0350_RLatLon0.09_PT018H.grib2 2026-04-30 08:43 483K
20260430T06Z_MSC_RDPS_WindSpeed_IsbL-0400_RLatLon0.09_PT018H.grib2 2026-04-30 08:43 484K
20260430T06Z_MSC_RDPS_WindSpeed_IsbL-0450_RLatLon0.09_PT018H.grib2 2026-04-30 08:43 485K
20260430T06Z_MSC_RDPS_WindSpeed_IsbL-0500_RLatLon0.09_PT018H.grib2 2026-04-30 08:43 468K
20260430T06Z_MSC_RDPS_WindSpeed_IsbL-0550_RLatLon0.09_PT018H.grib2 2026-04-30 08:43 469K
20260430T06Z_MSC_RDPS_WindSpeed_IsbL-0600_RLatLon0.09_PT018H.grib2 2026-04-30 08:43 478K
20260430T06Z_MSC_RDPS_WindSpeed_IsbL-0650_RLatLon0.09_PT018H.grib2 2026-04-30 08:43 618K
20260430T06Z_MSC_RDPS_WindSpeed_IsbL-0700_RLatLon0.09_PT018H.grib2 2026-04-30 08:43 644K
20260430T06Z_MSC_RDPS_WindSpeed_IsbL-0750_RLatLon0.09_PT018H.grib2 2026-04-30 08:43 715K
20260430T06Z_MSC_RDPS_WindSpeed_IsbL-0800_RLatLon0.09_PT018H.grib2 2026-04-30 08:43 755K
20260430T06Z_MSC_RDPS_WindSpeed_IsbL-0850_RLatLon0.09_PT018H.grib2 2026-04-30 08:43 804K
20260430T06Z_MSC_RDPS_WindSpeed_IsbL-0875_RLatLon0.09_PT018H.grib2 2026-04-30 08:43 824K
20260430T06Z_MSC_RDPS_WindSpeed_IsbL-0900_RLatLon0.09_PT018H.grib2 2026-04-30 08:43 841K
20260430T06Z_MSC_RDPS_WindSpeed_IsbL-0925_RLatLon0.09_PT018H.grib2 2026-04-30 08:43 851K
20260430T06Z_MSC_RDPS_WindSpeed_IsbL-0950_RLatLon0.09_PT018H.grib2 2026-04-30 08:43 850K
20260430T06Z_MSC_RDPS_WindSpeed_IsbL-0970_RLatLon0.09_PT018H.grib2 2026-04-30 08:43 851K
20260430T06Z_MSC_RDPS_WindSpeed_IsbL-0985_RLatLon0.09_PT018H.grib2 2026-04-30 08:43 845K
20260430T06Z_MSC_RDPS_WindSpeed_IsbL-1000_RLatLon0.09_PT018H.grib2 2026-04-30 08:43 838K
20260430T06Z_MSC_RDPS_WindSpeed_IsbL-1015_RLatLon0.09_PT018H.grib2 2026-04-30 08:43 828K
20260430T06Z_MSC_RDPS_WindU_AGL-10m_RLatLon0.09_PT018H.grib2 2026-04-30 08:43 428K
20260430T06Z_MSC_RDPS_WindU_AGL-120m_RLatLon0.09_PT018H.grib2 2026-04-30 08:43 529K
20260430T06Z_MSC_RDPS_WindU_AGL-40m_RLatLon0.09_PT018H.grib2 2026-04-30 08:43 532K
20260430T06Z_MSC_RDPS_WindU_AGL-80m_RLatLon0.09_PT018H.grib2 2026-04-30 08:43 531K
20260430T06Z_MSC_RDPS_WindU_IsbL-0001_RLatLon0.09_PT018H.grib2 2026-04-30 08:43 241K
20260430T06Z_MSC_RDPS_WindU_IsbL-0005_RLatLon0.09_PT018H.grib2 2026-04-30 08:43 284K
20260430T06Z_MSC_RDPS_WindU_IsbL-0010_RLatLon0.09_PT018H.grib2 2026-04-30 08:43 296K
20260430T06Z_MSC_RDPS_WindU_IsbL-0020_RLatLon0.09_PT018H.grib2 2026-04-30 08:43 311K
20260430T06Z_MSC_RDPS_WindU_IsbL-0030_RLatLon0.09_PT018H.grib2 2026-04-30 08:43 313K
20260430T06Z_MSC_RDPS_WindU_IsbL-0050_RLatLon0.09_PT018H.grib2 2026-04-30 08:43 340K
20260430T06Z_MSC_RDPS_WindU_IsbL-0100_RLatLon0.09_PT018H.grib2 2026-04-30 08:43 336K
20260430T06Z_MSC_RDPS_WindU_IsbL-0150_RLatLon0.09_PT018H.grib2 2026-04-30 08:43 403K
20260430T06Z_MSC_RDPS_WindU_IsbL-0175_RLatLon0.09_PT018H.grib2 2026-04-30 08:43 425K
20260430T06Z_MSC_RDPS_WindU_IsbL-0200_RLatLon0.09_PT018H.grib2 2026-04-30 08:43 341K
20260430T06Z_MSC_RDPS_WindU_IsbL-0225_RLatLon0.09_PT018H.grib2 2026-04-30 08:43 347K
20260430T06Z_MSC_RDPS_WindU_IsbL-0250_RLatLon0.09_PT018H.grib2 2026-04-30 08:43 348K
20260430T06Z_MSC_RDPS_WindU_IsbL-0275_RLatLon0.09_PT018H.grib2 2026-04-30 08:43 363K
20260430T06Z_MSC_RDPS_WindU_IsbL-0300_RLatLon0.09_PT018H.grib2 2026-04-30 08:43 358K
20260430T06Z_MSC_RDPS_WindU_IsbL-0350_RLatLon0.09_PT018H.grib2 2026-04-30 08:43 367K
20260430T06Z_MSC_RDPS_WindU_IsbL-0400_RLatLon0.09_PT018H.grib2 2026-04-30 08:43 369K
20260430T06Z_MSC_RDPS_WindU_IsbL-0450_RLatLon0.09_PT018H.grib2 2026-04-30 08:43 472K
20260430T06Z_MSC_RDPS_WindU_IsbL-0500_RLatLon0.09_PT018H.grib2 2026-04-30 08:43 474K
20260430T06Z_MSC_RDPS_WindU_IsbL-0550_RLatLon0.09_PT018H.grib2 2026-04-30 08:43 475K
20260430T06Z_MSC_RDPS_WindU_IsbL-0600_RLatLon0.09_PT018H.grib2 2026-04-30 08:43 484K
20260430T06Z_MSC_RDPS_WindU_IsbL-0650_RLatLon0.09_PT018H.grib2 2026-04-30 08:43 487K
20260430T06Z_MSC_RDPS_WindU_IsbL-0700_RLatLon0.09_PT018H.grib2 2026-04-30 08:43 512K
20260430T06Z_MSC_RDPS_WindU_IsbL-0750_RLatLon0.09_PT018H.grib2 2026-04-30 08:43 535K
20260430T06Z_MSC_RDPS_WindU_IsbL-0800_RLatLon0.09_PT018H.grib2 2026-04-30 08:43 570K
20260430T06Z_MSC_RDPS_WindU_IsbL-0850_RLatLon0.09_PT018H.grib2 2026-04-30 08:43 613K
20260430T06Z_MSC_RDPS_WindU_IsbL-0875_RLatLon0.09_PT018H.grib2 2026-04-30 08:43 630K
20260430T06Z_MSC_RDPS_WindU_IsbL-0900_RLatLon0.09_PT018H.grib2 2026-04-30 08:43 644K
20260430T06Z_MSC_RDPS_WindU_IsbL-0925_RLatLon0.09_PT018H.grib2 2026-04-30 08:43 651K
20260430T06Z_MSC_RDPS_WindU_IsbL-0950_RLatLon0.09_PT018H.grib2 2026-04-30 08:43 650K
20260430T06Z_MSC_RDPS_WindU_IsbL-0970_RLatLon0.09_PT018H.grib2 2026-04-30 08:43 789K
20260430T06Z_MSC_RDPS_WindU_IsbL-0985_RLatLon0.09_PT018H.grib2 2026-04-30 08:43 785K
20260430T06Z_MSC_RDPS_WindU_IsbL-1000_RLatLon0.09_PT018H.grib2 2026-04-30 08:43 780K
20260430T06Z_MSC_RDPS_WindU_IsbL-1015_RLatLon0.09_PT018H.grib2 2026-04-30 08:43 819K
20260430T06Z_MSC_RDPS_WindV_AGL-10m_RLatLon0.09_PT018H.grib2 2026-04-30 08:43 424K
20260430T06Z_MSC_RDPS_WindV_AGL-120m_RLatLon0.09_PT018H.grib2 2026-04-30 08:43 524K
20260430T06Z_MSC_RDPS_WindV_AGL-40m_RLatLon0.09_PT018H.grib2 2026-04-30 08:43 526K
20260430T06Z_MSC_RDPS_WindV_AGL-80m_RLatLon0.09_PT018H.grib2 2026-04-30 08:43 525K
20260430T06Z_MSC_RDPS_WindV_IsbL-0001_RLatLon0.09_PT018H.grib2 2026-04-30 08:43 243K
20260430T06Z_MSC_RDPS_WindV_IsbL-0005_RLatLon0.09_PT018H.grib2 2026-04-30 08:43 285K
20260430T06Z_MSC_RDPS_WindV_IsbL-0010_RLatLon0.09_PT018H.grib2 2026-04-30 08:43 298K
20260430T06Z_MSC_RDPS_WindV_IsbL-0020_RLatLon0.09_PT018H.grib2 2026-04-30 08:43 314K
20260430T06Z_MSC_RDPS_WindV_IsbL-0030_RLatLon0.09_PT018H.grib2 2026-04-30 08:43 317K
20260430T06Z_MSC_RDPS_WindV_IsbL-0050_RLatLon0.09_PT018H.grib2 2026-04-30 08:43 341K
20260430T06Z_MSC_RDPS_WindV_IsbL-0100_RLatLon0.09_PT018H.grib2 2026-04-30 08:43 427K
20260430T06Z_MSC_RDPS_WindV_IsbL-0150_RLatLon0.09_PT018H.grib2 2026-04-30 08:43 398K
20260430T06Z_MSC_RDPS_WindV_IsbL-0175_RLatLon0.09_PT018H.grib2 2026-04-30 08:43 421K
20260430T06Z_MSC_RDPS_WindV_IsbL-0200_RLatLon0.09_PT018H.grib2 2026-04-30 08:43 436K
20260430T06Z_MSC_RDPS_WindV_IsbL-0225_RLatLon0.09_PT018H.grib2 2026-04-30 08:43 443K
20260430T06Z_MSC_RDPS_WindV_IsbL-0250_RLatLon0.09_PT018H.grib2 2026-04-30 08:43 444K
20260430T06Z_MSC_RDPS_WindV_IsbL-0275_RLatLon0.09_PT018H.grib2 2026-04-30 08:43 360K
20260430T06Z_MSC_RDPS_WindV_IsbL-0300_RLatLon0.09_PT018H.grib2 2026-04-30 08:43 356K
20260430T06Z_MSC_RDPS_WindV_IsbL-0350_RLatLon0.09_PT018H.grib2 2026-04-30 08:43 365K
20260430T06Z_MSC_RDPS_WindV_IsbL-0400_RLatLon0.09_PT018H.grib2 2026-04-30 08:43 469K
20260430T06Z_MSC_RDPS_WindV_IsbL-0450_RLatLon0.09_PT018H.grib2 2026-04-30 08:43 469K
20260430T06Z_MSC_RDPS_WindV_IsbL-0500_RLatLon0.09_PT018H.grib2 2026-04-30 08:43 470K
20260430T06Z_MSC_RDPS_WindV_IsbL-0550_RLatLon0.09_PT018H.grib2 2026-04-30 08:43 472K
20260430T06Z_MSC_RDPS_WindV_IsbL-0600_RLatLon0.09_PT018H.grib2 2026-04-30 08:43 464K
20260430T06Z_MSC_RDPS_WindV_IsbL-0650_RLatLon0.09_PT018H.grib2 2026-04-30 08:43 484K
20260430T06Z_MSC_RDPS_WindV_IsbL-0700_RLatLon0.09_PT018H.grib2 2026-04-30 08:43 507K
20260430T06Z_MSC_RDPS_WindV_IsbL-0750_RLatLon0.09_PT018H.grib2 2026-04-30 08:43 530K
20260430T06Z_MSC_RDPS_WindV_IsbL-0800_RLatLon0.09_PT018H.grib2 2026-04-30 08:43 565K
20260430T06Z_MSC_RDPS_WindV_IsbL-0850_RLatLon0.09_PT018H.grib2 2026-04-30 08:43 608K
20260430T06Z_MSC_RDPS_WindV_IsbL-0875_RLatLon0.09_PT018H.grib2 2026-04-30 08:43 626K
20260430T06Z_MSC_RDPS_WindV_IsbL-0900_RLatLon0.09_PT018H.grib2 2026-04-30 08:43 641K
20260430T06Z_MSC_RDPS_WindV_IsbL-0925_RLatLon0.09_PT018H.grib2 2026-04-30 08:43 787K
20260430T06Z_MSC_RDPS_WindV_IsbL-0950_RLatLon0.09_PT018H.grib2 2026-04-30 08:43 787K
20260430T06Z_MSC_RDPS_WindV_IsbL-0970_RLatLon0.09_PT018H.grib2 2026-04-30 08:43 785K
20260430T06Z_MSC_RDPS_WindV_IsbL-0985_RLatLon0.09_PT018H.grib2 2026-04-30 08:43 780K
20260430T06Z_MSC_RDPS_WindV_IsbL-1000_RLatLon0.09_PT018H.grib2 2026-04-30 08:43 773K
20260430T06Z_MSC_RDPS_WindV_IsbL-1015_RLatLon0.09_PT018H.grib2 2026-04-30 08:43 812K